Tracking 19638 objects as of 20-May-2019
HD Live streaming from Space Station
objects crossing your sky now

EXPRESS AM-11

Track EXPRESS AM-11 now!
EXPRESS AM-11 is classified as:


NORAD ID: 28234
Int'l Code: 2004-015A
Perigee: 36,049.7 km
Apogee: 36,124.7 km
Inclination: 9.8 °
Period: 1,451.1 minutes
Semi major axis: 42458 km
RCS: 12.5893 m2 (large)
Launch date: April 26, 2004
Source: Commonwealth of Independent States (former USSR) (CIS)
Launch site: TYURATAM MISSILE AND SPACE COMPLEX (TTMTR)

26 C-band, 4 Ku-band; digital television, broadband internet links and telephone to Russia and its neighbors.
aabbcc
Your satellite tracking list
Your tracking list is empty




NASA's NSSDC Master Catalog

Two Line Element Set (TLE):
1 28234U 04015A   19139.35610757  .00000042  00000-0  00000+0 0  9991
2 28234   9.7717  40.1014 0008839 276.6134 291.4247  0.99233951 54693
Source of the keplerian elements: AFSPC